sat.trackr.live / text

‹ back to catalog

STARLINK-35112

NORAD 65520 · 2025-200A

PAYLOAD ACTIVE UNKNOWN

§ Identity

Operator
Country
US
Launch date
2025-09-06
Launch site
AFWTR
Launch vehicle
Mass (kg)
RCS (m²)

Purposes: comms

External: N2YO · Heavens-Above · Gunter

§ Orbital elements

Epoch: 2026-05-25T03:49:36.717600Z

Period
95.64 min
Inclination
97.4484°
Eccentricity
0.0003632
Mean motion
15.05652749 rev/d
Perigee alt
547.0 km
Apogee alt
552.0 km
Semi-major
6,927.6 km
B*
2.4497e-4
RAAN
214.7455°
Arg perigee
162.2413°
Mean anomaly
197.8942°
Rev number
4,063

§ Raw data

STARLINK-351121 65520U 25200A   26145.15945275  .00003478  00000+0  24497-3 0  99932 65520  97.4484 214.7455 0003632 162.2413 197.8942 15.05652749 40634

JSON: /api/v1/satellites/65520 · /tle

For live sub-satellite position, see the globe view (requires WebGL).

§ Visibility from observer

Set your observer location to see the next 7 days of passes ≥ 10°. The values pass through the URL so the page stays shareable.

No JS? Fill the form by hand. The geolocation button needs JavaScript.